Regional Weather Roundup
Issued by NWS Binghamton, NY

Home | Current Version | Previous Version | Text Only | Print | Product List | Glossary On
Versions: 1 2 3 4 5 6 7 8 9 10 11 12 13 14 15 16 17 18 19 20 21 22 23 24 25 26 27 28 29 30 31 32 33 34 35 36 37 38 39 40 41 42 43 44 45 46 47 48 49 50
000
ASUS41 KBGM 301010
RWRBGM
RWRBGM
BINGHAMTON REGIONAL WEATHER ROUNDUP
NATIONAL WEATHER SERVICE BINGHAMTON NY
600 AM EDT SAT AUG 30 2014

Note: "fair" indicates few or no clouds below 12,000 feet with no
significant weather and/or obstructions to visibility.

* = Station(s) that does not report precipitation, such as rain,
snow, etc, also no thunder or fog.

!NYZ009-015>018-022>025-036-037-044>046-055>057-062-301100
...CENTRAL NEW YORK...

CITY           SKY/WX    TMP DP  RH WIND       PRES   REMARKS
BINGHAMTON     CLEAR     55  53  93 S7        30.21F
CORTLAND       FAIR      54  54 100 CALM      30.20F
DANSVILLE      CLEAR     60  53  77 SE12      30.14S
ELMIRA         CLEAR     52  51  97 CALM      30.18R
ITHACA         CLEAR     59  53  80 S13G20    30.19S
HAMILTON       SUNNY     57  54  88 S7        30.21R
MONTICELLO     PTCLDY    48  48 100 CALM      30.29S
NORWICH        CLEAR     52  52 100 S5        30.22F
PENN YAN       CLEAR     62  53  72 SW12      30.15S
ROME           PTCLDY    56  53  90 SE7       30.20S
SIDNEY         CLEAR     52  52 100 CALM      30.23S FOG
SYRACUSE       PTCLDY    59  54  83 E6        30.14F
$$

!PAZ038>040-043-044-047-048-072-301100
...NORTHEAST PENNSYLVANIA...

CITY           SKY/WX    TMP DP  RH WIND       PRES   REMARKS
HAZLETON       CLOUDY    61  59  94 SE5       30.27S
SCRANTON       PTCLDY    62  56  80 SW3       30.23S
TOWANDA*       PTCLDY    52  52 100 CALM      30.21S VSB 3/4
$$
&&
KEY
WCI = WIND CHILL INDEX
VSB = VISIBILITY
HX  = HEAT INDEX
$$



USA.gov is the U.S. government's official web portal to all federal, state and local government web resources and services.